| time (UTC) | temp C | wind direction | speed KPH | gust KPH | rain 1hr cm | rain 24hr cm | rain mn cm | humidity % | barometer mb |
| 20260504081934 | -17 | 161 | 0.0 | 6.4 | 0.00 | 0.00 | 0.00 | ||
| 20260504081440 | -17 | 163 | 0.0 | 6.4 | 0.00 | 0.00 | 0.00 | ||
| 20260504080927 | -17 | 163 | 0.0 | 6.4 | 0.00 | 0.00 | 0.00 | ||
| 20260504080433 | -17 | 178 | 1.6 | 4.8 | 0.00 | 0.00 | 0.00 | ||
| 20260504050425 | -17 | 170 | 0.0 | 0.0 | 0.00 | 0.00 | 0.00 | ||
| 20260504045950 | -17 | 170 | 0.0 | 0.0 | 0.00 | 0.00 | 0.00 | ||
| 20260504045437 | -17 | 170 | 0.0 | 0.0 | 0.00 | 0.00 | 0.00 | ||
| 20260504044943 | -17 | 170 | 0.0 | 0.0 | 0.00 | 0.00 | 0.00 | ||
| 20260504044431 | -17 | 170 | 0.0 | 0.0 | 0.00 | 0.00 | 0.00 | ||
| 20260504043934 | -17 | 170 | 0.0 | 0.0 | 0.00 | 0.00 | 0.00 | ||
| 20260504043442 | -17 | 170 | 0.0 | 0.0 | 0.00 | 0.00 | 0.00 | ||
| 20260504042930 | -17 | 170 | 0.0 | 0.0 | 0.00 | 0.00 | 0.00 | ||
| 20260504042435 | -17 | 170 | 0.0 | 0.0 | 0.00 | 0.00 | 0.00 | ||
| 20260504041922 | -17 | 170 | 0.0 | 0.0 | 0.00 | 0.00 | 0.00 | ||
| 20260504041458 | -17 | 170 | 0.0 | 0.0 | 0.00 | 0.00 | 0.00 | ||
| 20260504040943 | -17 | 170 | 0.0 | 0.0 | 0.00 | 0.00 | 0.00 | ||
| 20260504040428 | -17 | 170 | 0.0 | 0.0 | 0.00 | 0.00 | 0.00 | ||
| 20260504035932 | -17 | 170 | 0.0 | 0.0 | 0.00 | 0.00 | 0.00 | ||
| 20260504035440 | -17 | 170 | 0.0 | 0.0 | 0.00 | 0.00 | 0.00 | ||
| 20260504034946 | -17 | 170 | 0.0 | 0.0 | 0.00 | 0.00 | 0.00 | ||
| 20260504034434 | -17 | 170 | 0.0 | 0.0 | 0.00 | 0.00 | 0.00 | ||
| 20260504033940 | -17 | 170 | 0.0 | 0.0 | 0.00 | 0.00 | 0.00 | ||
| 20260504033427 | -17 | 301 | 0.0 | 0.0 | 0.00 | 0.00 | 0.00 | ||
| 20260504032951 | -17 | 301 | 0.0 | 0.0 | 0.00 | 0.00 | 0.00 | ||
| 20260504032438 | -17 | 302 | 0.0 | 0.0 | 0.00 | 0.00 | 0.00 | ||
| 20260504031943 | -17 | 302 | 0.0 | 0.0 | 0.00 | 0.00 | 0.00 | ||
| 20260504031431 | -17 | 302 | 0.0 | 0.0 | 0.00 | 0.00 | 0.00 | ||
| 20260504030934 | -17 | 302 | 0.0 | 0.0 | 0.00 | 0.00 | 0.00 | ||
| 20260504030441 | -17 | 302 | 0.0 | 0.0 | 0.00 | 0.00 | 0.00 | ||
| 20260504025929 | -17 | 302 | 0.0 | 4.8 | 0.00 | 0.00 | 0.00 | ||
| 20260504025453 | -17 | 302 | 0.0 | 6.4 | 0.00 | 0.00 | 0.00 | ||
| 20260504024955 | -17 | 290 | 0.0 | 6.4 | 0.00 | 0.00 | 0.00 | ||
| 20260504024425 | -17 | 310 | 0.0 | 4.8 | 0.00 | 0.00 | 0.00 | ||
| 20260504023933 | -17 | 308 | 0.0 | 6.4 | 0.00 | 0.00 | 0.00 | ||
| 20260504023441 | -17 | 303 | 0.0 | 6.4 | 0.00 | 0.00 | 0.00 | ||
| 20260504022929 | -17 | 286 | 0.0 | 4.8 | 0.00 | 0.00 | 0.00 | ||
| 20260504022434 | -17 | 327 | 0.0 | 4.8 | 0.00 | 0.00 | 0.00 | ||
| 20260504022001 | -17 | 283 | 1.6 | 4.8 | 0.00 | 0.00 | 0.00 | ||
| 20260504021430 | -17 | 312 | 0.0 | 20.9 | 0.00 | 0.00 | 0.00 | ||
| 20260504021003 | -17 | 321 | 8.0 | 20.9 | 0.00 | 0.00 | 0.00 | ||
| 20260504020430 | -17 | 173 | 0.0 | 1.6 | 0.00 | 0.00 | 0.00 | ||
| 20260504015935 | -17 | 177 | 0.0 | 0.0 | 0.00 | 0.00 | 0.00 | ||
| 20260504015441 | -17 | 201 | 0.0 | 0.0 | 0.00 | 0.00 | 0.00 | ||
| 20260504014929 | -17 | 222 | 0.0 | 0.0 | 0.00 | 0.00 | 0.00 | ||
| 20260504014435 | -17 | 240 | 0.0 | 4.8 | 0.00 | 0.00 | 0.00 | ||
| 20260504013941 | -17 | 241 | 0.0 | 4.8 | 0.00 | 0.00 | 0.00 | ||
| 20260504013429 | -17 | 188 | 0.0 | 0.0 | 0.00 | 0.00 | 0.00 | ||
| 20260504012933 | -17 | 189 | 0.0 | 0.0 | 0.00 | 0.00 | 0.00 | ||
| 20260504012440 | -17 | 287 | 0.0 | 0.0 | 0.00 | 0.00 | 0.00 | ||
| 20260504011928 | -17 | 287 | 0.0 | 0.0 | 0.00 | 0.00 | 0.00 | ||
| 20260504011435 | -17 | 287 | 0.0 | 0.0 | 0.00 | 0.00 | 0.00 | ||
| 20260504011002 | -17 | 287 | 0.0 | 0.0 | 0.00 | 0.00 | 0.00 | ||
| 20260504010509 | -17 | 287 | 0.0 | 1.6 | 0.00 | 0.00 | 0.00 | ||
| 20260504005935 | -17 | 287 | 0.0 | 6.4 | 0.00 | 0.00 | 0.00 | ||
| 20260504005441 | -17 | 286 | 1.6 | 6.4 | 0.00 | 0.00 | 0.00 | ||
| 20260504004929 | -17 | 304 | 1.6 | 8.0 | 0.00 | 0.00 | 0.00 | ||
| 20260504004437 | -17 | 338 | 0.0 | 3.2 | 0.00 | 0.00 | 0.00 | ||
| 20260504003944 | -17 | 330 | 0.0 | 3.2 | 0.00 | 0.00 | 0.00 | ||
| 20260504003430 | -17 | 316 | 0.0 | 1.6 | 0.00 | 0.00 | 0.00 | ||
| 20260504002936 | -17 | 316 | 0.0 | 1.6 | 0.00 | 0.00 | 0.00 | ||
| 20260504002442 | -17 | 281 | 0.0 | 0.0 | 0.00 | 0.00 | 0.00 | ||
| 20260504001949 | -17 | 281 | 0.0 | 0.0 | 0.00 | 0.00 | 0.00 | ||
| 20260504001432 | -17 | 281 | 0.0 | 0.0 | 0.00 | 0.00 | 0.00 | ||
| 20260504000937 | -17 | 280 | 0.0 | 0.0 | 0.00 | 0.00 | 0.00 | ||
| 20260504000424 | -17 | 280 | 0.0 | 0.0 | 0.00 | 0.00 | 0.00 | ||
| 20260503235954 | -17 | 280 | 0.0 | 0.0 | 0.00 | 0.00 | 0.00 | ||
| 20260503235438 | -17 | 280 | 0.0 | 0.0 | 0.00 | 0.00 | 0.00 | ||
| 20260503235007 | -17 | 280 | 0.0 | 0.0 | 0.00 | 0.00 | 0.00 | ||
| 20260503234435 | -17 | 280 | 0.0 | 0.0 | 0.00 | 0.00 | 0.00 | ||
| 20260503233941 | -17 | 280 | 0.0 | 0.0 | 0.00 | 0.00 | 0.00 | ||
| 20260503233429 | -17 | 258 | 0.0 | 0.0 | 0.00 | 0.00 | 0.00 | ||
| 20260503232935 | -17 | 244 | 0.0 | 8.0 | 0.00 | 0.00 | 0.00 | ||
| 20260503232441 | -17 | 244 | 0.0 | 8.0 | 0.00 | 0.00 | 0.00 | ||
| 20260503231929 | -17 | 276 | 0.0 | 8.0 | 0.00 | 0.00 | 0.00 | ||
| 20260503231437 | -17 | 288 | 0.0 | 1.6 | 0.00 | 0.00 | 0.00 | ||
| 20260503230944 | -17 | 270 | 0.0 | 1.6 | 0.00 | 0.00 | 0.00 | ||
| 20260503230431 | -17 | 241 | 0.0 | 4.8 | 0.00 | 0.00 | 0.00 | ||
| 20260503225952 | -17 | 277 | 1.6 | 4.8 | 0.00 | 0.00 | 0.00 | ||
| 20260503225440 | -17 | 226 | 0.0 | 3.2 | 0.00 | 0.00 | 0.00 | ||
| 20260503224926 | -17 | 260 | 0.0 | 4.8 | 0.00 | 0.00 | 0.00 | ||
| 20260503224432 | -17 | 238 | 0.0 | 4.8 | 0.00 | 0.00 | 0.00 | ||
| 20260503223959 | -17 | 297 | 0.0 | 6.4 | 0.00 | 0.00 | 0.00 | ||
| 20260503223426 | -17 | 324 | 0.0 | 11.3 | 0.00 | 0.00 | 0.00 | ||
| 20260503222931 | -17 | 271 | 1.6 | 6.4 | 0.00 | 0.00 | 0.00 | ||
| 20260503222437 | -17 | 261 | 0.0 | 1.6 | 0.00 | 0.00 | 0.00 | ||
| 20260503221944 | -17 | 243 | 0.0 | 1.6 | 0.00 | 0.00 | 0.00 | ||
| 20260503221432 | -17 | 266 | 0.0 | 3.2 | 0.00 | 0.00 | 0.00 | ||
| 20260503220938 | -17 | 291 | 0.0 | 9.7 | 0.00 | 0.00 | 0.00 | ||
| 20260503220445 | -17 | 269 | 4.8 | 9.7 | 0.00 | 0.00 | 0.00 | ||
| 20260503215933 | -17 | 292 | 1.6 | 12.9 | 0.00 | 0.00 | 0.00 | ||
| 20260503215422 | -17 | 241 | 1.6 | 8.0 | 0.00 | 0.00 | 0.00 | ||
| 20260503214935 | -17 | 289 | 0.0 | 8.0 | 0.00 | 0.00 | 0.00 | ||
| 20260503214443 | -17 | 300 | 0.0 | 4.8 | 0.00 | 0.00 | 0.00 | ||
| 20260503213942 | -17 | 271 | 0.0 | 19.3 | 0.00 | 0.00 | 0.00 | ||
| 20260503213429 | -17 | 237 | 3.2 | 19.3 | 0.00 | 0.00 | 0.00 | ||
| 20260503212955 | -17 | 276 | 0.0 | 12.9 | 0.00 | 0.00 | 0.00 | ||
| 20260503212441 | -17 | 314 | 4.8 | 12.9 | 0.00 | 0.00 | 0.00 | ||
| 20260503211949 | -17 | 300 | 0.0 | 12.9 | 0.00 | 0.00 | 0.00 | ||
| 20260503211457 | -17 | 292 | 0.0 | 4.8 | 0.00 | 0.00 | 0.00 | ||
| 20260503210943 | -17 | 339 | 0.0 | 1.6 | 0.00 | 0.00 | 0.00 | ||
| 20260503210431 | -17 | 300 | 0.0 | 3.2 | 0.00 | 0.00 | 0.00 | ||
| 20260503210006 | -17 | 281 | 0.0 | 14.5 | 0.00 | 0.00 | 0.00 | ||
| 20260503205432 | -17 | 262 | 1.6 | 14.5 | 0.00 | 0.00 | 0.00 | ||
| 20260503204939 | -17 | 298 | 1.6 | 14.5 | 0.00 | 0.00 | 0.00 | ||
| 20260503204447 | -17 | 310 | 1.6 | 14.5 | 0.00 | 0.00 | 0.00 | ||
| 20260503203935 | -17 | 298 | 0.0 | 12.9 | 0.00 | 0.00 | 0.00 | ||
| 20260503203438 | -17 | 291 | 1.6 | 12.9 | 0.00 | 0.00 | 0.00 | ||
| 20260503202925 | -17 | 289 | 0.0 | 6.4 | 0.00 | 0.00 | 0.00 | ||
| 20260503202432 | -17 | 276 | 1.6 | 12.9 | 0.00 | 0.00 | 0.00 | ||
| 20260503201938 | -17 | 282 | 3.2 | 22.5 | 0.00 | 0.00 | 0.00 | ||
| 20260503201448 | -17 | 328 | 8.0 | 22.5 | 0.00 | 0.00 | 0.00 | ||
| 20260503200931 | -67 | 316 | 1.6 | 19.3 | 0.00 | 0.00 | 0.00 | ||
| 20260503200500 | -67 | 307 | 1.6 | 9.7 | 0.00 | 0.00 | 0.00 | ||
| 20260503195945 | -67 | 303 | 1.6 | 9.7 | 0.00 | 0.00 | 0.00 | ||
| 20260503195433 | -67 | 343 | 1.6 | 8.0 | 0.00 | 0.00 | 0.00 | ||
| 20260503194942 | -67 | 297 | 0.0 | 12.9 | 0.00 | 0.00 | 0.00 | ||
| 20260503194431 | -67 | 339 | 1.6 | 12.9 | 0.00 | 0.00 | 0.00 | ||
| 20260503193938 | -67 | 316 | 1.6 | 12.9 | 0.00 | 0.00 | 0.00 | ||
| 20260503193443 | -67 | 319 | 1.6 | 14.5 | 0.00 | 0.00 | 0.00 | ||
| 20260503192930 | -67 | 318 | 4.8 | 16.1 | 0.00 | 0.00 | 0.00 | ||
| 20260503192504 | -67 | 276 | 6.4 | 16.1 | 0.00 | 0.00 | 0.00 | ||
| 20260503191929 | -67 | 305 | 0.0 | 17.7 | 0.00 | 0.00 | 0.00 | ||
| 20260503191433 | -67 | 328 | 3.2 | 17.7 | 0.00 | 0.00 | 0.00 | ||
| 20260503190940 | -67 | 268 | 3.2 | 11.3 | 0.00 | 0.00 | 0.00 | ||
| 20260503190428 | -67 | 299 | 1.6 | 9.7 | 0.00 | 0.00 | 0.00 | ||
| 20260503185935 | -67 | 284 | 3.2 | 9.7 | 0.00 | 0.00 | 0.00 | ||
| 20260503185503 | -67 | 354 | 1.6 | 9.7 | 0.00 | 0.00 | 0.00 | ||
| 20260503184929 | -67 | 333 | 1.6 | 9.7 | 0.00 | 0.00 | 0.00 | ||
| 20260503184434 | -17 | 310 | 3.2 | 14.5 | 0.00 | 0.00 | 0.00 | ||
| 20260503183921 | -17 | 359 | 6.4 | 14.5 | 0.00 | 0.00 | 0.00 | ||
| 20260503183456 | -67 | 317 | 1.6 | 11.3 | 0.00 | 0.00 | 0.00 | ||
| 20260503182944 | -17 | 297 | 1.6 | 12.9 | 0.00 | 0.00 | 0.00 | ||
| 20260503182451 | -17 | 298 | 4.8 | 12.9 | 0.00 | 0.00 | 0.00 | ||
| 20260503181936 | -17 | 267 | 1.6 | 19.3 | 0.00 | 0.00 | 0.00 | ||
| 20260503181443 | -17 | 307 | 1.6 | 19.3 | 0.00 | 0.00 | 0.00 | ||
| 20260503180929 | -17 | 320 | 4.8 | 16.1 | 0.00 | 0.00 | 0.00 | ||
| 20260503180452 | -17 | 292 | 3.2 | 19.3 | 0.00 | 0.00 | 0.00 | ||
| 20260503175939 | -17 | 297 | 3.2 | 19.3 | 0.00 | 0.00 | 0.00 | ||
| 20260503175427 | -17 | 354 | 11.3 | 19.3 | 0.00 | 0.00 | 0.00 | ||
| 20260503174950 | -67 | 301 | 1.6 | 11.3 | 0.00 | 0.00 | 0.00 | ||
| 20260503174438 | -67 | 291 | 1.6 | 11.3 | 0.00 | 0.00 | 0.00 | ||
| 20260503173926 | -67 | 327 | 1.6 | 8.0 | 0.00 | 0.00 | 0.00 | ||
| 20260503173429 | -17 | 273 | 0.0 | 12.9 | 0.00 | 0.00 | 0.00 | ||
| 20260503172935 | -17 | 345 | 1.6 | 12.9 | 0.00 | 0.00 | 0.00 | ||
| 20260503172443 | -17 | 306 | 1.6 | 11.3 | 0.00 | 0.00 | 0.00 | ||
| 20260503171930 | -17 | 321 | 3.2 | 11.3 | 0.00 | 0.00 | 0.00 | ||
| 20260503171439 | -17 | 318 | 3.2 | 12.9 | 0.00 | 0.00 | 0.00 | ||
| 20260503170945 | -17 | 328 | 4.8 | 12.9 | 0.00 | 0.00 | 0.00 | ||
| 20260503170451 | -17 | 324 | 1.6 | 11.3 | 0.00 | 0.00 | 0.00 | ||
| 20260503151005 | -17 | 14 | 0.0 | 11.3 | 0.00 | 0.00 | 0.00 | ||
| 20260503150449 | -17 | 306 | 0.0 | 11.3 | 0.00 | 0.00 | 0.00 | ||
| 20260503130930 | -17 | 326 | 3.2 | 11.3 | 0.00 | 0.00 | 0.00 | ||
| 20260503130438 | -17 | 354 | 4.8 | 11.3 | 0.00 | 0.00 | 0.00 | ||
| 20260503110434 | -17 | 315 | 0.0 | 1.6 | 0.00 | 0.00 | 0.00 |